Weather History for KTAZ - July, 2013

Change the Weather History Date:

Sunday, July 28, 2013

  Actual Average (KSPI) Record (KSPI)
Temperature  
Mean Temperature 60 °F 75 °F  
Max Temperature 77 °F 86 °F 104 °F (1930)
Min Temperature 44 °F 65 °F 48 °F (2013)
Degree Days  
Heating Degree Days 4 0  
Month to date heating degree days 0  
Since 1 June heating degree days 15  
Since 1 July heating degree days 0  
Cooling Degree Days 0 10  
Month to date cooling degree days 306  
Year to date cooling degree days 650  
Since 1 June cooling degree days 546  
Growing Degree Days 10 (Base 50)    
Moisture  
Dew Point 51 °F    
Average Humidity 74    
Maximum Humidity 100    
Minimum Humidity 38    
Precipitation  
Precipitation 0.00 in 0.12 in 2.33 in (1907)
Month to date precipitation 3.60  
Year to date precipitation 22.07  
Snow  
Snow 0.00 in 0.00 in 0.00 in ()
Month to date snowfall 0.0  
Since 1 June snowfall 0.0  
Since 1 July snowfall 0.0  
Snow Depth -    
Sea Level Pressure  
Sea Level Pressure 30.01 in    
Wind  
Wind Speed 4 mph (WSW)    
Max Wind Speed 13 mph    
Max Gust Speed 20 mph    
Visibility 10 miles    
Events      
T = Trace of Precipitation, MM = Missing Value Source: NWS Daily Summary

Daily Weather History Graph

Daily Weather History Graph

Search for Another Location

Airport or City:

Trip Planner

Search our weather history database for the weather conditions in past years. The results will help you decide how hot, cold, wet, or windy it might be!

Date:

Astronomy

Jul. 28, 2013 Rise Set
Actual Time 5:53 AM CDT 8:13 PM CDT
Civil Twilight 5:23 AM CDT 8:43 PM CDT
Nautical Twilight 4:45 AM CDT 9:21 PM CDT
Astronomical Twilight 4:04 AM CDT 10:02 PM CDT
Moon 11:37 PM CDT (7/28) 12:33 PM CDT (7/28)
Length of Visible Light 15h 20m
Length of Day
14h 20m
Waning Gibbous, 60% of the Moon is Illuminated
Jul 28
Waning Gibbous
Jul 29
Last Quarter
Aug 6
New
Aug 14
First Quarter
Aug 20
Full

Hourly Weather History & Observations

Time (CDT) Temp. Windchill Dew Point Humidity Pressure Visibility Wind Dir Wind Speed Gust Speed Precip Events Conditions
12:15 AM 50.0 °F - 48.2 °F 94% 30.00 in 10.0 mi Calm Calm - N/A   Clear
12:35 AM 50.0 °F - 48.2 °F 94% 29.99 in 10.0 mi Calm Calm - N/A   Clear
12:55 AM 48.2 °F - 48.2 °F 100% 29.99 in 10.0 mi SSW 3.5 mph - N/A   Clear
1:15 AM 48.2 °F - 48.2 °F 100% 29.99 in 10.0 mi Calm Calm - N/A   Clear
1:35 AM 48.2 °F - 48.2 °F 100% 29.99 in 10.0 mi Calm Calm - N/A   Clear
1:55 AM 48.2 °F - 48.2 °F 100% 29.98 in 10.0 mi Calm Calm - N/A   Clear
2:15 AM 48.2 °F - 48.2 °F 100% 29.98 in 10.0 mi Calm Calm - N/A   Clear
2:35 AM 46.4 °F - 46.4 °F 100% 29.98 in 10.0 mi Calm Calm - N/A   Clear
2:55 AM 46.4 °F - 46.4 °F 100% 29.98 in 10.0 mi Calm Calm - N/A   Clear
3:15 AM 46.4 °F - 46.4 °F 100% 29.98 in 10.0 mi Calm Calm - N/A   Clear
3:35 AM 46.4 °F 45.2 °F 46.4 °F 100% 29.99 in 10.0 mi SW 3.5 mph - N/A   Clear
3:55 AM 46.4 °F 44.3 °F 46.4 °F 100% 29.99 in 7.0 mi SSW 4.6 mph - N/A   Clear
4:15 AM 46.4 °F 45.2 °F 46.4 °F 100% 30.00 in 7.0 mi SSW 3.5 mph - N/A   Clear
4:35 AM 46.4 °F 45.2 °F 46.4 °F 100% 30.00 in 10.0 mi SSW 3.5 mph - N/A   Clear
4:55 AM 46.4 °F - 46.4 °F 100% 29.99 in 10.0 mi Calm Calm - N/A   Clear
5:15 AM 46.4 °F 44.3 °F 46.4 °F 100% 29.99 in 10.0 mi SSW 4.6 mph - N/A   Clear
5:35 AM 44.6 °F 42.2 °F 44.6 °F 100% 30.00 in 10.0 mi SSW 4.6 mph - N/A   Clear
5:55 AM 44.6 °F 42.2 °F 44.6 °F 100% 30.00 in 10.0 mi SSW 4.6 mph - N/A   Clear
6:15 AM 46.4 °F - 46.4 °F 100% 30.00 in 10.0 mi Calm Calm - N/A   Clear
6:35 AM 46.4 °F 45.2 °F 46.4 °F 100% 30.00 in 10.0 mi SSW 3.5 mph - N/A   Clear
6:55 AM 48.2 °F - 48.2 °F 100% 30.00 in 10.0 mi Calm Calm - N/A   Clear
7:15 AM 51.8 °F - 51.8 °F 100% 30.00 in 10.0 mi SW 4.6 mph - N/A   Clear
7:35 AM 53.6 °F - 51.8 °F 94% 30.01 in 10.0 mi WSW 4.6 mph - N/A   Clear
7:55 AM 57.2 °F - 53.6 °F 88% 30.02 in 10.0 mi WSW 5.8 mph - N/A   Clear
8:15 AM 59.0 °F - 53.6 °F 82% 30.02 in 10.0 mi WSW 3.5 mph - N/A   Clear
8:35 AM 60.8 °F - 53.6 °F 77% 30.02 in 10.0 mi WSW 5.8 mph - N/A   Clear
8:55 AM 62.6 °F - 51.8 °F 68% 30.02 in 10.0 mi West 6.9 mph - N/A   Clear
9:15 AM 64.4 °F - 51.8 °F 64% 30.02 in 10.0 mi WSW 6.9 mph - N/A   Clear
9:35 AM 66.2 °F - 51.8 °F 60% 30.02 in 10.0 mi West 11.5 mph - N/A   Clear
9:55 AM 68.0 °F - 51.8 °F 56% 30.02 in 10.0 mi WSW 12.7 mph - N/A   Clear
10:15 AM 69.8 °F - 51.8 °F 53% 30.01 in 10.0 mi West 10.4 mph 17.3 mph N/A   Clear
10:35 AM 69.8 °F - 48.2 °F 46% 30.02 in 10.0 mi West 12.7 mph 17.3 mph N/A   Clear
10:55 AM 71.6 °F - 48.2 °F 43% 30.02 in 10.0 mi West 11.5 mph - N/A   Clear
11:15 AM 71.6 °F - 48.2 °F 43% 30.01 in 10.0 mi West 12.7 mph 18.4 mph N/A   Clear
11:35 AM 71.6 °F - 48.2 °F 43% 30.01 in 10.0 mi West 10.4 mph 18.4 mph N/A   Scattered Clouds
11:55 AM 71.6 °F - 48.2 °F 43% 30.01 in 10.0 mi WNW 8.1 mph 16.1 mph N/A   Scattered Clouds
12:15 PM 73.4 °F - 50.0 °F 44% 30.01 in 10.0 mi WNW 9.2 mph - N/A   Scattered Clouds
12:35 PM 71.6 °F - 50.0 °F 46% 30.01 in 10.0 mi West 10.4 mph 18.4 mph N/A   Scattered Clouds
12:55 PM 73.4 °F - 50.0 °F 44% 30.01 in 10.0 mi WNW 11.5 mph 18.4 mph N/A   Scattered Clouds
1:15 PM 73.4 °F - 50.0 °F 44% 30.01 in 10.0 mi West 8.1 mph - N/A   Scattered Clouds
1:35 PM 73.4 °F - 51.8 °F 47% 30.01 in 10.0 mi WNW 9.2 mph - N/A   Scattered Clouds
1:55 PM 75.2 °F - 48.2 °F 38% 30.00 in 10.0 mi West 9.2 mph 16.1 mph N/A   Scattered Clouds
2:15 PM 75.2 °F - 50.0 °F 41% 30.01 in 10.0 mi West 8.1 mph 19.6 mph N/A   Scattered Clouds
2:35 PM 75.2 °F - 50.0 °F 41% 30.01 in 10.0 mi West 8.1 mph - N/A   Scattered Clouds
2:55 PM 77.0 °F - 51.8 °F 41% 30.00 in 10.0 mi West 8.1 mph - N/A   Scattered Clouds
3:15 PM 75.2 °F - 51.8 °F 44% 30.00 in 10.0 mi West 8.1 mph - N/A   Scattered Clouds
3:35 PM 73.4 °F - 51.8 °F 47% 30.01 in 10.0 mi West 6.9 mph - N/A   Scattered Clouds
3:55 PM 75.2 °F - 51.8 °F 44% 30.00 in 10.0 mi West 4.6 mph - N/A   Scattered Clouds
4:15 PM 75.2 °F - 51.8 °F 44% 30.00 in 10.0 mi West 10.4 mph - N/A   Clear
4:35 PM 75.2 °F - 51.8 °F 44% 30.00 in 10.0 mi West 10.4 mph - N/A   Scattered Clouds
4:55 PM 75.2 °F - 50.0 °F 41% 30.00 in 10.0 mi West 9.2 mph - N/A   Clear
5:15 PM 73.4 °F - 51.8 °F 47% 30.01 in 10.0 mi West 6.9 mph - N/A   Clear
5:35 PM 75.2 °F - 51.8 °F 44% 30.01 in 10.0 mi West 8.1 mph - N/A   Scattered Clouds
5:55 PM 75.2 °F - 51.8 °F 44% 30.01 in 10.0 mi West 6.9 mph - N/A   Clear
6:15 PM 73.4 °F - 51.8 °F 47% 30.01 in 10.0 mi West 6.9 mph - N/A   Clear
6:35 PM 71.6 °F - 51.8 °F 50% 30.02 in 10.0 mi WNW 4.6 mph - N/A   Clear
6:55 PM 71.6 °F - 53.6 °F 53% 30.02 in 10.0 mi Calm Calm - N/A   Scattered Clouds
7:15 PM 71.6 °F - 55.4 °F 57% 30.02 in 10.0 mi Calm Calm - N/A   Scattered Clouds
7:35 PM 69.8 °F - 55.4 °F 60% 30.02 in 10.0 mi Calm Calm - N/A   Clear
7:55 PM 66.2 °F - 57.2 °F 73% 30.03 in 10.0 mi Calm Calm - N/A   Scattered Clouds
8:15 PM 62.6 °F - 57.2 °F 82% 30.03 in 10.0 mi Calm Calm - N/A   Clear
8:35 PM 60.8 °F - 57.2 °F 88% 30.03 in 10.0 mi Calm Calm - N/A   Clear
8:55 PM 60.8 °F - 57.2 °F 88% 30.03 in 10.0 mi Calm Calm - N/A   Clear
9:15 PM 59.0 °F - 57.2 °F 94% 30.04 in 10.0 mi Calm Calm - N/A   Clear
9:35 PM 57.2 °F - 55.4 °F 94% 30.04 in 10.0 mi Calm Calm - N/A   Clear
9:55 PM 57.2 °F - 55.4 °F 94% 30.05 in 10.0 mi Calm Calm - N/A   Clear
10:15 PM 55.4 °F - 55.4 °F 100% 30.06 in 10.0 mi Calm Calm - N/A   Clear
10:35 PM 55.4 °F - 55.4 °F 100% 30.06 in 10.0 mi Calm Calm - N/A   Clear
10:55 PM 55.4 °F - 55.4 °F 100% 30.06 in 10.0 mi Calm Calm - N/A   Clear
11:15 PM 53.6 °F - 53.6 °F 100% 30.05 in 10.0 mi Calm Calm - N/A   Clear
11:35 PM 53.6 °F - 53.6 °F 100% 30.06 in 10.0 mi Calm Calm - N/A   Clear
11:55 PM 53.6 °F - 53.6 °F 100% 30.07 in 10.0 mi Calm Calm - N/A   Clear